Location: Stara Lesna
(49.1528°N, 20.2911°E)
Time: 18:45:29
(UTC+02:00)

Resurs 1-4 Rocket - Pass Details

Date: 21 September 2019
Orbit: 800 x 814 km, 98.6° (Epoch: 14 October)

Event Time Altitude Azimuth Distance (km) Brightness Sun altitude
Rises 03:38:44 0° 7° (N) 3,328 5.9 -25.9°
Reaches altitude 10° 03:41:18 10° 357° (N) 2,395 4.9 -25.6°
Enters shadow 03:45:12 29° 311° (NW) 1,450 3.3 -25.1°
